ランキン彗星

P/2020 W1 ( Rankin )

English version
Home page
Updated on December 16, 2022

---------------------------------------------------------------------

・ プロフィール

発見日 2020年11月16日
発見光度 20.9等
発見者 David Rankin (Mt. Lemmon)

・ 軌道要素

Epoch 2020 Apr. 21.0 TT = JDT 2458960.5
T 2020 Apr. 3.85266 TT                                  Rudenko
q   5.2875049            (2000.0)            P               Q
n   0.05114345     Peri.  264.73997     +0.86005176     -0.48617128
a   7.1880214      Node   124.26145     +0.50989475     +0.80842757
e   0.2644005      Incl.   10.79199     +0.01784128     +0.33178660
P  19.3
From 89 observations 2020 Aug. 29-Dec. 18, mean residual 0".4.

・ 光度変化

        m1 = 10.0 + 5 logΔ + 10.0 log r

---------------------------------------------------------------------

軌道要素はM.P.E.C. 2021-B143に掲載されたものです。
光度グラフはComet for Windowsで作成したものです。

---------------------------------------------------------------------

Copyright(C) Seiichi Yoshida (comet@aerith.net). All rights reserved.